Location: Tel Aviv
(32.0670°N, 34.7670°E)
Time: 04:24:26
(UTC+03:00)

Vanguard 2 - Pass Details

Date: 01 February 2022
Orbit: 552 x 2935 km, 32.9° (Epoch: 25 May)

Event Time Altitude Azimuth Distance (km) Brightness Sun altitude
Rises 01:04:00 0° 280° (W) 5,457 - -68.3°
Reaches altitude 10° 01:07:43 10° 271° (W) 4,764 - -67.7°
Maximum altitude 01:19:47 33° 214° (SW) 3,894 - -65.6°
Drops below altitude 10° 01:34:28 10° 159° (SSE) 5,752 - -62.9°
Exits shadow 01:34:46 - 158° (SSE) 5,804 11.9 -62.9°
Sets 01:39:39 0° 150° (SSE) 6,697 12.4 -62.0°
